[[{"header":{"parameterUnit":"m.s-1","parameterCategory":1,"la1":30.2991,"la2":30.254,"lo1":-89.0895,"lo2":-89.0444,"dy":0.0017,"dx":0.0017,"nx":28,"ny":28,"refTime":"2025-05-27T09:00:00:Z","depth":0,"parameterNumber":2,"parameterNumberName":"U-component_of_WINDS"},"data":[0,0,0,0,0,0,0,0,0,0,0,0,0,0,0,0,0,0,0,0,0,0,0,0,0,0,0,0,0,0,0,0,0,0,0,0,0,0,0,0,0,0,0,0,0,0,0,0,0,0,0,0,0,0,0,0,0,0,3.156,3.1561,0,3.1641,3.1642,3.1643,3.1622,3.162,3.1618,3.1617,3.17,3.1704,3.1708,0,0,0,0,0,0,0,0,0,0,0,0,0,3.1388,3.1391,3.156,3.1561,3.1562,3.1641,3.1642,3.1643,3.1622,3.162,3.1618,3.1616,3.1699,3.1704,3.1708,0,0,0,0,0,0,0,0,0,0,0,0,0,3.1465,3.1392,3.1559,3.1561,3.1562,3.164,3.1642,3.1643,3.1622,3.162,3.1617,3.1615,3.1698,3.1703,3.1709,3.1791,0,0,3.1726,3.1728,0,0,0,0,0,0,0,0,3.146,3.1471,3.156,3.1561,3.1562,3.1619,3.1612,3.1693,3.1623,3.1599,3.1617,3.1614,3.1675,3.1682,3.1703,3.1795,3.1799,3.1726,3.173,3.1732,3.1734,0,0,0,0,0,0,0,3.1455,3.1468,3.1592,3.1561,3.1562,3.1557,3.1566,3.1627,3.165,3.1601,3.16,3.161,3.1675,3.1698,3.1705,3.18,3.1726,3.1731,3.1734,3.1737,3.1964,3.1967,0,0,0,0,0,0,3.1449,3.1463,3.1589,3.1594,3.1504,3.1563,3.1572,3.1603,3.1649,3.1654,3.1612,3.1608,3.1689,3.1698,3.1708,3.1807,3.1732,3.1737,3.174,3.1961,3.1965,3.1968,0,0,0,0,0,0,3.1445,3.146,3.1586,3.1528,3.1544,3.1568,3.1603,3.1606,3.1628,3.1657,3.1661,3.163,3.1688,3.17,3.1771,3.181,3.174,3.1745,3.1958,3.1962,3.1966,3.2007,0,0,0,0,0,0,3.144,3.1459,3.149,3.1529,3.1547,3.1647,3.1605,3.1609,3.1637,3.1634,3.1675,3.168,3.1687,3.1762,3.1776,3.1816,3.1749,3.1955,3.196,3.1965,3.2002,3.2011,3.202,0,0,0,0,0,3.1434,3.1499,3.1492,3.1507,3.1587,3.165,3.166,3.1666,3.1641,3.1672,3.1691,3.1679,3.1803,3.177,3.1785,3.1827,3.1952,3.1959,3.1965,3.1998,3.201,3.2019,0,0,0,0,0,0,3.1463,3.1504,3.1497,3.1576,3.1609,3.1646,3.1686,3.1679,3.172,3.1715,3.1722,3.1731,3.1804,3.1823,3.1785,3.191,3.1874,3.1884,3.1894,3.1906,3.1914,3.1908,3.1754,0,0,0,0,0,3.1479,3.1527,3.1559,3.1626,3.1643,3.1662,3.1689,3.1691,3.1727,3.1741,3.1765,3.18,3.1847,3.1877,3.1922,3.2005,3.2013,3.2042,3.2051,3.2058,3.2065,3.211,3.2123,3.1988,3.1988,3.1987,0,0,3.1512,3.154,3.1569,3.1632,3.1659,3.1708,3.1674,3.1727,3.1764,3.1749,3.1817,3.1836,3.1875,3.1952,3.1987,3.197,3.2105,3.2065,3.2071,3.2075,3.2118,3.2131,3.2142,3.1992,3.1991,3.199,0,0,3.1596,3.1622,3.168,3.1708,3.1748,3.176,3.1774,3.1812,3.1824,3.1893,3.1883,3.1927,3.2008,3.2036,3.2061,3.2157,3.2147,3.2172,3.2218,3.2262,3.2273,3.2282,3.2316,3.2328,3.218,3.218,3.218,0,3.1632,3.1705,3.1711,3.1766,3.1794,3.1783,3.1842,3.1868,3.1921,3.1941,3.1921,3.2023,3.2049,3.2132,3.2155,3.2176,3.2192,3.2167,3.2271,3.228,3.2289,3.2321,3.2334,3.2183,3.2182,3.2182,3.2182,0,3.1746,3.1798,3.184,3.1891,3.1924,3.198,3.1995,3.2028,3.2028,3.2042,3.2112,3.2143,3.2194,3.2214,3.2215,3.2298,3.2286,3.2269,3.2233,3.2305,3.2335,3.2347,3.2187,3.2186,3.2185,3.2184,0,0,3.185,3.1905,3.192,3.1943,3.1988,3.2027,3.2084,3.2133,3.2161,3.2199,3.2246,3.2315,3.2299,3.2328,3.2331,3.237,3.2444,3.2348,3.2349,3.2364,3.2537,3.2549,3.2563,3.2438,3.244,3.2442,3.2533,0,3.1938,3.2036,3.2044,3.2133,3.218,3.2171,3.222,3.2253,3.2268,3.2311,3.2328,3.2376,3.2352,3.2369,3.2407,3.2427,3.2478,3.242,3.2481,3.2483,3.247,3.2579,3.2592,3.2676,3.2545,3.2547,3.2549,0,3.2052,3.2093,3.2187,3.2225,3.2245,3.2289,3.2335,3.2376,3.2413,3.2422,3.2454,3.2452,3.251,3.2474,3.2553,3.2514,3.254,3.2553,3.2556,3.2561,3.2519,3.2586,3.2703,3.2715,3.2568,3.2566,3.2565,0,3.2118,3.2196,3.2262,3.2283,3.2329,3.236,3.238,3.2415,3.2445,3.2486,3.2505,3.2552,3.2578,3.2614,3.2626,3.2598,3.2705,3.2669,3.2713,3.2713,3.2735,3.2733,3.2857,3.2754,3.2754,3.2753,3.2753,0,3.2214,3.2271,3.2292,3.2333,3.2397,3.2406,3.2469,3.2488,3.2519,3.2563,3.2559,3.2601,3.2614,3.2658,3.2667,3.2732,3.2744,3.2752,3.2754,3.2752,3.2751,3.2768,3.2762,3.2757,3.2756,3.2755,3.2755,0,3.2297,3.2313,3.2384,3.2423,3.2434,3.2479,3.2512,3.2551,3.2566,3.2622,3.2636,3.2659,3.2711,3.2726,3.2789,3.2795,3.287,3.2867,3.2857,3.2857,3.29,3.2895,3.3038,3.3057,3.2942,3.2943,3.2944,0,3.2356,3.24,3.2443,3.2473,3.2495,3.2542,3.2572,3.2583,3.2615,3.2661,3.2694,3.2745,3.2786,3.2869,3.2892,3.294,3.2937,3.2984,3.2944,3.2941,3.2937,3.2933,3.2938,3.2991,3.2992,3.2993,3.2994,0,3.246,3.2466,3.251,3.2557,3.2593,3.263,3.2666,3.2691,3.2707,3.2743,3.2795,3.2827,3.2891,3.2942,3.299,3.3011,3.3006,3.3007,3.3019,3.3017,3.3009,3.3013,3.2877,3.3003,3.3002,3.3001,3.3001,3.3001,3.2532,3.2571,3.2607,3.2656,3.2685,3.2719,3.2757,3.2777,3.2821,3.2874,3.2878,3.2935,3.2971,3.3036,3.306,3.3105,3.3091,3.311,3.3114,3.3118,3.3121,3.3003,3.3114,3.3114,3.3113,3.3113,3.3113,0,3.2635,3.2658,3.2703,3.2754,3.2793,3.2784,3.2824,3.2856,3.2907,3.2941,3.2982,3.3043,3.3092,3.3119,3.3168,3.3199,3.3197,3.3211,3.3208,3.3213,3.3131,3.3115,3.3212,3.3212,3.3212,3.3212,3.3212,3.3212,3.2693,3.2758,3.2768,3.2847,3.287,3.2926,3.2949,3.298,3.3008,3.3076,3.3117,3.3134,3.3166,3.3218,3.3263,3.3269,3.3287,3.3302,3.3308,3.323,3.3219,3.321,3.3194,3.3307,3.3307,3.3386,3.3387,3.3387]},{"header":{"parameterUnit":"m.s-1","parameterCategory":1,"la1":30.2991,"la2":30.254,"lo1":-89.0895,"lo2":-89.0444,"dy":0.0017,"dx":0.0017,"nx":28,"ny":28,"refTime":"2025-05-27T09:00:00:Z","depth":0,"parameterNumber":3,"parameterNumberName":"V-component_of_WINDS"},"data":[0,0,0,0,0,0,0,0,0,0,0,0,0,0,0,0,0,0,0,0,0,0,0,0,0,0,0,0,0,0,0,0,0,0,0,0,0,0,0,0,0,0,0,0,0,0,0,0,0,0,0,0,0,0,0,0,0,0,1.6546,1.6547,0,1.665,1.6651,1.6652,1.6671,1.667,1.6669,1.6668,1.6774,1.6777,1.6781,0,0,0,0,0,0,0,0,0,0,0,0,0,1.6363,1.6366,1.6546,1.6547,1.6549,1.665,1.6651,1.6653,1.6671,1.667,1.6669,1.6668,1.6773,1.6777,1.6781,0,0,0,0,0,0,0,0,0,0,0,0,0,1.6452,1.6367,1.6546,1.657,1.6573,1.6649,1.6651,1.6653,1.6671,1.667,1.6669,1.6668,1.6771,1.6776,1.6782,1.6841,0,0,1.6798,1.6801,0,0,0,0,0,0,0,0,1.6447,1.6459,1.6565,1.6568,1.6572,1.6646,1.6625,1.6716,1.6672,1.6634,1.6668,1.6667,1.6732,1.6741,1.6763,1.6846,1.685,1.6799,1.6802,1.6804,1.6806,0,0,0,0,0,0,0,1.6441,1.6454,1.6587,1.6567,1.6571,1.6576,1.6587,1.6643,1.6689,1.6637,1.6639,1.6651,1.6734,1.6758,1.6766,1.6852,1.6799,1.6803,1.6807,1.6809,1.6989,1.699,0,0,0,0,0,0,1.643,1.6449,1.6584,1.659,1.6505,1.658,1.6592,1.6624,1.6688,1.6697,1.6652,1.6651,1.6749,1.6759,1.6769,1.6844,1.6804,1.6809,1.6812,1.6987,1.6989,1.6991,0,0,0,0,0,0,1.6426,1.6442,1.658,1.652,1.6538,1.6584,1.6619,1.6626,1.665,1.67,1.6708,1.6668,1.6749,1.6762,1.6823,1.6848,1.6812,1.6817,1.6986,1.6988,1.699,1.6992,0,0,0,0,0,0,1.6421,1.6441,1.6464,1.6521,1.6541,1.6632,1.6621,1.6629,1.666,1.666,1.6717,1.6725,1.6749,1.6815,1.6829,1.6854,1.6821,1.6984,1.6987,1.6989,1.699,1.6994,1.6998,0,0,0,0,0,1.6414,1.646,1.6465,1.6481,1.6571,1.6633,1.6645,1.6672,1.6662,1.6685,1.6717,1.6723,1.6843,1.6821,1.6837,1.6864,1.6982,1.6986,1.6989,1.6988,1.6993,1.6998,0,0,0,0,0,0,1.6404,1.6467,1.6474,1.6539,1.6581,1.6636,1.6667,1.6676,1.6721,1.6719,1.675,1.6763,1.6823,1.6849,1.6824,1.6925,1.6912,1.6918,1.6906,1.6911,1.6915,1.6907,1.6825,0,0,0,0,0,1.6409,1.6455,1.6508,1.656,1.658,1.662,1.6648,1.6665,1.6709,1.6727,1.6763,1.6805,1.6853,1.6883,1.6929,1.6994,1.7007,1.7021,1.7024,1.7027,1.7033,1.707,1.7077,1.7002,1.7002,1.7002,0,0,1.642,1.6461,1.6487,1.6559,1.6593,1.664,1.6635,1.6684,1.6719,1.6734,1.6795,1.6823,1.6872,1.6936,1.6965,1.696,1.7056,1.7032,1.7034,1.7038,1.7074,1.7081,1.7088,1.7005,1.7004,1.7004,0,0,1.6465,1.65,1.6548,1.6582,1.6635,1.6661,1.6672,1.6727,1.6746,1.6807,1.682,1.6862,1.6942,1.6978,1.7006,1.7064,1.7072,1.7078,1.7099,1.7134,1.714,1.7146,1.7167,1.7175,1.7084,1.7084,1.7084,0,1.6472,1.6543,1.6571,1.662,1.6651,1.6668,1.6717,1.6749,1.6813,1.6834,1.6827,1.6929,1.6964,1.7036,1.7051,1.7072,1.7087,1.7072,1.7137,1.7143,1.7148,1.717,1.7178,1.7084,1.7084,1.7084,1.7084,0,1.655,1.6599,1.6631,1.6694,1.6729,1.6777,1.6813,1.6844,1.6858,1.6885,1.6948,1.6989,1.7045,1.7063,1.7077,1.7138,1.7133,1.7131,1.7118,1.7156,1.7176,1.7184,1.7085,1.7085,1.7084,1.7084,0,0,1.6591,1.6669,1.6681,1.671,1.6769,1.6807,1.6856,1.6911,1.6938,1.6982,1.7025,1.7092,1.7092,1.7124,1.7141,1.7173,1.7218,1.7167,1.7169,1.7176,1.7289,1.729,1.7299,1.7223,1.7224,1.7226,1.7285,0,1.6644,1.6733,1.676,1.6835,1.6881,1.6898,1.6941,1.6982,1.7008,1.7051,1.7079,1.7128,1.7122,1.7142,1.7174,1.7205,1.7241,1.7201,1.7263,1.7265,1.7251,1.731,1.7312,1.7365,1.7293,1.7294,1.7295,0,1.6717,1.6763,1.6843,1.6897,1.6917,1.6956,1.7008,1.7049,1.7096,1.7113,1.7149,1.7164,1.7217,1.72,1.7273,1.7246,1.7272,1.7292,1.7295,1.7302,1.7283,1.732,1.7383,1.7391,1.7308,1.7307,1.7306,0,1.674,1.6822,1.6881,1.6905,1.6969,1.6996,1.7024,1.7069,1.7101,1.7147,1.7167,1.7218,1.7246,1.7286,1.7314,1.73,1.7385,1.7371,1.7401,1.7401,1.7419,1.7418,1.7488,1.7435,1.7434,1.7434,1.7434,0,1.6796,1.6845,1.6892,1.6928,1.6983,1.7013,1.7067,1.7095,1.7136,1.7178,1.7195,1.7234,1.7269,1.7313,1.7336,1.7393,1.7405,1.7421,1.7427,1.742,1.7418,1.7439,1.7436,1.7436,1.7436,1.7436,1.7435,0,1.6832,1.6865,1.6931,1.6987,1.7002,1.704,1.7087,1.7123,1.715,1.7203,1.7218,1.726,1.7312,1.7345,1.7411,1.7427,1.749,1.7494,1.7475,1.7477,1.7506,1.7504,1.7594,1.7607,1.7543,1.7544,1.7544,0,1.6866,1.6904,1.6964,1.6994,1.7022,1.707,1.7102,1.7133,1.7166,1.7223,1.7252,1.7306,1.735,1.7433,1.747,1.7521,1.7527,1.7555,1.7535,1.7527,1.7529,1.7526,1.7531,1.7558,1.7559,1.7559,1.756,0,1.6924,1.6939,1.6985,1.7038,1.7076,1.7119,1.7161,1.7184,1.7222,1.7259,1.7313,1.7348,1.7416,1.7469,1.7524,1.7552,1.7563,1.7566,1.7576,1.757,1.7558,1.7566,1.7485,1.7564,1.7563,1.7563,1.7563,1.7563,1.6961,1.6995,1.7043,1.7095,1.713,1.717,1.7206,1.7238,1.7284,1.7343,1.7358,1.7415,1.7461,1.7536,1.7565,1.761,1.7606,1.762,1.7624,1.7627,1.7629,1.755,1.762,1.762,1.762,1.762,1.762,0,1.702,1.7052,1.7099,1.7158,1.7199,1.7205,1.7252,1.7286,1.7336,1.7379,1.7423,1.7485,1.7537,1.7578,1.7631,1.766,1.7666,1.7673,1.7671,1.7678,1.7629,1.7615,1.7667,1.7667,1.7667,1.7667,1.7667,1.7667,1.7056,1.7115,1.7136,1.7213,1.7245,1.7302,1.7328,1.7365,1.7399,1.7469,1.7512,1.7539,1.7581,1.7637,1.7686,1.7696,1.7715,1.7722,1.7733,1.7687,1.7681,1.7677,1.7664,1.7725,1.7725,1.7779,1.778,1.778]}]]